Location: Sevilla
(37.3933°N, 5.9839°W)
Time: 04:31:35
(UTC+02:00)

Vanguard 3 - Pass Details

Date: 30 June 2024
Orbit: 508 x 3231 km, 33.4° (Epoch: 15 July)

Event Time Altitude Azimuth Distance (km) Brightness Sun altitude
Rises 14:24:07 0° 278° (W) 4,774 11.1 75.7°
Reaches altitude 10° 14:28:32 10° 267° (W) 3,277 10.4 75.7°
Maximum altitude 14:34:23 24° 217° (SW) 1,796 9.5 75.7°
Drops below altitude 10° 14:38:27 10° 163° (SSE) 2,186 9.7 75.5°
Sets 14:40:47 0° 147° (SSE) 2,894 10.1 75.5°
